West Columbia, SC

11:27 PM EDT on August 24, 2016 (GMT -0400)
Columbia Metro

Weather History for KCAE - March, 2014

Change the Weather History Date:

Sunday, March 2, 2014

  Actual Average Record
Temperature  
Mean Temperature 55 °F 52 °F  
Max Temperature 76 °F 64 °F 86 °F (1951)
Min Temperature 34 °F 40 °F 18 °F (1980)
Degree Days  
Heating Degree Days 10 13  
Month to date heating degree days 24 27  
Since 1 July heating degree days 2108 2126  
Cooling Degree Days 0 0  
Month to date cooling degree days 0 0  
Year to date cooling degree days 7 4  
Growing Degree Days 4 (Base 50)    
Moisture  
Dew Point 41 °F    
Average Humidity 63    
Maximum Humidity 92    
Minimum Humidity 33    
Precipitation  
Precipitation 0.00 in 0.13 in 1.92 in (1971)
Month to date precipitation 0.00 0.26  
Year to date precipitation 6.32 7.45  
Sea Level Pressure  
Sea Level Pressure 30.13 in    
Wind  
Wind Speed 4 mph (SSW)    
Max Wind Speed 16 mph    
Max Gust Speed 21 mph    
Visibility 9 miles    
Events      
T = Trace of Precipitation, MM = Missing Value Source: NWS Daily Summary

Daily Weather History Graph

Daily Weather History Graph

Search for Another Location

Airport or City:

Trip Planner

Search our weather history database for the weather conditions in past years. The results will help you decide how hot, cold, wet, or windy it might be!

Date:

Astronomy

Mar. 02, 2014 Rise Set
Actual Time 6:51 AM EST 6:21 PM EST
Civil Twilight 6:26 AM EST 6:46 PM EST
Nautical Twilight 5:57 AM EST 7:15 PM EST
Astronomical Twilight 5:28 AM EST 7:44 PM EST
Moon 7:27 AM EST (3/2) 8:09 PM EST (3/2)
Length of Visible Light 12h 20m
Length of Day
11h 29m
Waxing Crescent, 3% of the Moon is Illuminated
Mar 2
Waxing Crescent
Mar 8
First Quarter
Mar 16
Full
Mar 23
Last Quarter
Mar 30
New

Hourly Weather History & Observations

Time (EST) Temp. Windchill Dew Point Humidity Pressure Visibility Wind Dir Wind Speed Gust Speed Precip Events Conditions
12:56 AM 39.0 °F - 36.0 °F 89% 30.24 in 8.0 mi Calm Calm - N/A   Clear
1:56 AM 37.9 °F - 34.0 °F 86% 30.22 in 8.0 mi Calm Calm - N/A   Clear
2:56 AM 37.0 °F 34.5 °F 34.0 °F 89% 30.21 in 6.0 mi West 3.5 mph - N/A   Clear
3:56 AM 36.0 °F - 33.1 °F 89% 30.20 in 7.0 mi Calm Calm - N/A   Clear
4:56 AM 36.0 °F - 33.1 °F 89% 30.22 in 8.0 mi Calm Calm - N/A   Clear
5:56 AM 36.0 °F - 33.1 °F 89% 30.21 in 8.0 mi Calm Calm - N/A   Clear
6:56 AM 35.1 °F - 32.0 °F 89% 30.22 in 6.0 mi Calm Calm - N/A   Partly Cloudy
7:56 AM 41.0 °F - 36.0 °F 82% 30.23 in 6.0 mi Calm Calm - N/A   Haze
8:56 AM 48.0 °F - 41.0 °F 77% 30.24 in 6.0 mi Calm Calm - N/A   Haze
9:56 AM 57.9 °F - 45.0 °F 62% 30.22 in 10.0 mi Calm Calm - N/A   Clear
10:56 AM 64.9 °F - 45.0 °F 48% 30.20 in 10.0 mi SSW 6.9 mph - N/A   Clear
11:56 AM 69.1 °F - 43.0 °F 39% 30.17 in 10.0 mi WSW 8.1 mph - N/A   Partly Cloudy
12:56 PM 72.0 °F - 43.0 °F 35% 30.13 in 10.0 mi SSW 9.2 mph - N/A   Partly Cloudy
1:56 PM 73.0 °F - 44.1 °F 35% 30.09 in 10.0 mi SSW 6.9 mph - N/A   Partly Cloudy
2:56 PM 73.9 °F - 44.1 °F 34% 30.06 in 10.0 mi SW 15.0 mph 20.7 mph N/A   Partly Cloudy
3:56 PM 75.0 °F - 45.0 °F 34% 30.04 in 10.0 mi WSW 11.5 mph - N/A   Partly Cloudy
4:56 PM 73.9 °F - 46.0 °F 37% 30.02 in 10.0 mi SSW 11.5 mph - N/A   Clear
5:56 PM 72.0 °F - 45.0 °F 38% 30.02 in 10.0 mi SW 8.1 mph - N/A   Partly Cloudy
6:56 PM 66.9 °F - 45.0 °F 45% 30.02 in 10.0 mi SSW 4.6 mph - N/A   Partly Cloudy
7:56 PM 64.0 °F - 45.0 °F 50% 30.01 in 10.0 mi SSW 3.5 mph - N/A   Clear
8:56 PM 62.1 °F - 46.0 °F 56% 30.01 in 10.0 mi South 3.5 mph - N/A   Clear
9:56 PM 59.0 °F - 45.0 °F 60% 30.00 in 10.0 mi South 5.8 mph - N/A   Clear
10:56 PM 57.9 °F - 46.0 °F 65% 29.99 in 10.0 mi South 4.6 mph - N/A   Mostly Cloudy
11:56 PM 55.9 °F - 46.0 °F 69% 29.98 in 10.0 mi South 3.5 mph - N/A   Scattered Clouds